Location: Unspecified
(0.0000°N, 0.0000°E)
Time: 16:49:39
(UTC+00:00)

Transit 2A - Visible Passes

Search period start: 27 February 2015 00:00
Search period end: 09 March 2015 00:00
Orbit: 592 x 970 km, 66.7° (Epoch: 27 February)

Date Brightness Start Highest point End Pass type
(mag) Time Alt. Az. Time Alt. Az. Time Alt. Az.
27 Feb 5.8 18:51:40 10° SSW 18:56:26 72° ESE 19:01:45 10° NNE visible
28 Feb 9.0 05:45:58 10° NNE 05:49:20 16° ENE 05:52:51 10° ESE visible
28 Feb 8.9 20:04:24 10° W 20:06:09 11° WNW 20:07:32 10° NW visible
01 Mar 8.5 19:28:35 10° WSW 19:32:14 20° WNW 19:35:57 10° NNW visible
02 Mar 7.8 18:53:59 10° SW 18:58:24 32° WNW 19:03:10 10° N visible
03 Mar 7.2 05:45:56 10° N 05:51:33 50° ENE 05:56:42 10° SE visible
04 Mar 8.1 05:12:45 10° N 05:17:46 30° ENE 05:22:29 10° SE visible
05 Mar 8.7 04:40:04 10° NNE 04:43:54 19° ENE 04:47:46 10° ESE visible
06 Mar 9.1 04:08:42 10° NE 04:09:58 11° ENE 04:11:42 10° E visible
07 Mar 6.1 05:13:59 10° NNW 05:19:47 85° WSW 05:25:00 10° SSE visible
08 Mar 6.6 04:40:23 10° N 04:46:04 58° ENE 04:51:13 10° SSE visible
